• In Belarus
  • List of Countries
  • For 7 days
  • Water Temperature
  • Satellite Maps
  • Weather Map
  • Weather Widgets
  • user-avatar
    Login

    Hourly Weather Ashtarak

    Today, 15 August, Wednesday

    Time Temperature Precipitation Wind Pressure Humidity
    00:00 +18°C° 0.2 mm 3 mps 657 mmHg 76%
    01:00 +18°C° 0.2 mm 2 mps 657 mmHg 76%
    02:00 +18°C° 0.2 mm 2 mps 657 mmHg 76%
    03:00 +18°C° 0.2 mm 2 mps 657 mmHg 76%
    04:00 +17°C° 0.2 mm 2 mps 657 mmHg 77%
    05:00 +17°C° 0.2 mm 2 mps 657 mmHg 78%
    06:00 +17°C° 0.2 mm 2 mps 658 mmHg 78%
    07:00 +19°C° 0.1 mm 2 mps 658 mmHg 72%
    08:00 +20°C° 0.1 mm 2 mps 658 mmHg 66%
    09:00 +23°C° 0.1 mm 2 mps 658 mmHg 59%
    10:00 +24°C° 0.1 mm 2 mps 658 mmHg 56%
    11:00 +25°C° 0.1 mm 2 mps 658 mmHg 52%
    12:00 +26°C° 0.1 mm 2 mps 658 mmHg 49%
    13:00 +27°C° 0.2 mm 3 mps 658 mmHg 48%
    14:00 +27°C° 0.2 mm 3 mps 658 mmHg 46%
    15:00 +28°C° 0.2 mm 3 mps 658 mmHg 45%
    16:00 +27°C° 0.2 mm 3 mps 658 mmHg 47%
    17:00 +27°C° 0.2 mm 3 mps 658 mmHg 50%
    18:00 +26°C° 0.2 mm 4 mps 658 mmHg 52%
    19:00 +24°C° 0.1 mm 3 mps 658 mmHg 58%
    20:00 +21°C° 0.1 mm 3 mps 658 mmHg 64%
    21:00 +20°C° 0.1 mm 3 mps 658 mmHg 70%
    22:00 +19°C° 0 mm 3 mps 658 mmHg 70%
    23:00 +19°C° 0 mm 3 mps 658 mmHg 71%

    Tomorrow, 16 August, Thursday

    Time Temperature Precipitation Wind Pressure Humidity
    00:00 +18°C° 0 mm 2 mps 658 mmHg 72%
    01:00 +18°C° 0 mm 2 mps 658 mmHg 72%
    02:00 +18°C° 0 mm 2 mps 658 mmHg 72%
    03:00 +17°C° 0 mm 2 mps 658 mmHg 73%
    04:00 +18°C° 0 mm 2 mps 658 mmHg 72%
    05:00 +18°C° 0 mm 2 mps 658 mmHg 72%
    06:00 +18°C° 0 mm 2 mps 658 mmHg 72%
    07:00 +20°C° 0 mm 2 mps 659 mmHg 63%
    08:00 +23°C° 0 mm 2 mps 659 mmHg 54%
    09:00 +26°C° 0 mm 2 mps 659 mmHg 46%
    10:00 +27°C° 0 mm 2 mps 659 mmHg 42%
    11:00 +29°C° 0 mm 2 mps 659 mmHg 37%
    12:00 +30°C° 0 mm 3 mps 659 mmHg 33%
    13:00 +31°C° 0 mm 3 mps 659 mmHg 32%
    14:00 +33°C° 0 mm 3 mps 659 mmHg 31%
    15:00 +33°C° 0 mm 3 mps 658 mmHg 30%
    16:00 +31°C° 0.1 mm 3 mps 658 mmHg 34%
    17:00 +30°C° 0.1 mm 2 mps 658 mmHg 38%
    18:00 +29°C° 0.1 mm 2 mps 657 mmHg 42%
    19:00 +27°C° 0.1 mm 2 mps 658 mmHg 50%
    20:00 +25°C° 0.1 mm 3 mps 658 mmHg 58%
    21:00 +22°C° 0.1 mm 3 mps 658 mmHg 66%
    22:00 +22°C° 0 mm 3 mps 658 mmHg 67%
    23:00 +21°C° 0 mm 3 mps 658 mmHg 68%

    Day after tomorrow, 17 August, Friday

    Time Temperature Precipitation Wind Pressure Humidity
    00:00 +21°C° 0 mm 2 mps 658 mmHg 70%
    01:00 +21°C° 0 mm 2 mps 657 mmHg 69%
    02:00 +20°C° 0 mm 2 mps 657 mmHg 69%
    03:00 +20°C° 0 mm 2 mps 657 mmHg 69%
    04:00 +20°C° 0 mm 2 mps 657 mmHg 68%
    05:00 +20°C° 0 mm 2 mps 657 mmHg 67%
    06:00 +20°C° 0 mm 2 mps 657 mmHg 66%
    07:00 +24°C° 0 mm 1 mps 658 mmHg 56%
    08:00 +26°C° 0 mm 1 mps 658 mmHg 47%
    09:00 +29°C° 0 mm 1 mps 659 mmHg 38%
    10:00 +30°C° 0 mm 1 mps 659 mmHg 34%
    11:00 +32°C° 0 mm 2 mps 658 mmHg 30%
    12:00 +34°C° 0 mm 2 mps 658 mmHg 26%
    13:00 +35°C° 0 mm 2 mps 658 mmHg 25%
    14:00 +35°C° 0 mm 2 mps 658 mmHg 24%
    15:00 +35°C° 0 mm 2 mps 657 mmHg 22%
    16:00 +34°C° 0 mm 2 mps 657 mmHg 27%
    17:00 +32°C° 0 mm 2 mps 657 mmHg 31%
    18:00 +31°C° 0 mm 2 mps 656 mmHg 36%
    19:00 +29°C° 0 mm 2 mps 656 mmHg 44%
    20:00 +27°C° 0 mm 3 mps 656 mmHg 53%
    21:00 +25°C° 0 mm 3 mps 656 mmHg 61%
    22:00 +24°C° 0 mm 3 mps 656 mmHg 62%
    23:00 +24°C° 0 mm 3 mps 656 mmHg 63%

    18 August, Saturday

    Time Temperature Precipitation Wind Pressure Humidity
    00:00 +22°C° 0 mm 3 mps 656 mmHg 65%
    01:00 +22°C° 0 mm 3 mps 656 mmHg 65%
    02:00 +21°C° 0 mm 3 mps 655 mmHg 65%
    03:00 +21°C° 0 mm 2 mps 655 mmHg 65%
    04:00 +21°C° 0 mm 2 mps 655 mmHg 65%
    05:00 +20°C° 0 mm 2 mps 655 mmHg 65%
    06:00 +20°C° 0 mm 2 mps 655 mmHg 66%
    07:00 +24°C° 0 mm 2 mps 656 mmHg 58%
    08:00 +26°C° 0 mm 2 mps 656 mmHg 50%
    09:00 +28°C° 0 mm 2 mps 656 mmHg 42%
    10:00 +30°C° 0.1 mm 2 mps 656 mmHg 38%
    11:00 +31°C° 0.1 mm 2 mps 656 mmHg 34%
    12:00 +32°C° 0.1 mm 2 mps 656 mmHg 30%
    13:00 +34°C° 0 mm 2 mps 656 mmHg 29%
    14:00 +34°C° 0 mm 2 mps 655 mmHg 28%
    15:00 +34°C° 0 mm 2 mps 655 mmHg 27%
    16:00 +33°C° 0.4 mm 3 mps 655 mmHg 32%
    17:00 +31°C° 0.4 mm 3 mps 655 mmHg 37%
    18:00 +30°C° 0.4 mm 3 mps 654 mmHg 42%
    19:00 +28°C° 0.1 mm 3 mps 655 mmHg 48%
    20:00 +26°C° 0.1 mm 3 mps 655 mmHg 54%
    21:00 +24°C° 0.1 mm 3 mps 655 mmHg 60%
    22:00 +22°C° 0.1 mm 3 mps 655 mmHg 62%
    23:00 +22°C° 0.1 mm 3 mps 655 mmHg 64%

    19 August, Sunday

    Time Temperature Precipitation Wind Pressure Humidity
    00:00 +21°C° 0.1 mm 3 mps 655 mmHg 66%
    01:00 +20°C° 0.2 mm 3 mps 655 mmHg 68%
    02:00 +20°C° 0.2 mm 3 mps 655 mmHg 71%
    03:00 +19°C° 0.2 mm 3 mps 655 mmHg 73%
    04:00 +19°C° 0.2 mm 2 mps 655 mmHg 74%
    05:00 +19°C° 0.2 mm 2 mps 655 mmHg 74%
    06:00 +19°C° 0.2 mm 2 mps 655 mmHg 75%
    07:00 +21°C° 0.1 mm 2 mps 655 mmHg 67%
    08:00 +24°C° 0.1 mm 2 mps 656 mmHg 60%
    09:00 +26°C° 0.1 mm 2 mps 656 mmHg 52%
    10:00 +27°C° 0.2 mm 2 mps 656 mmHg 49%
    11:00 +28°C° 0.2 mm 2 mps 656 mmHg 45%
    12:00 +29°C° 0.2 mm 2 mps 656 mmHg 41%
    13:00 +30°C° 0.3 mm 2 mps 655 mmHg 40%
    14:00 +30°C° 0.3 mm 3 mps 655 mmHg 40%
    15:00 +30°C° 0.3 mm 3 mps 655 mmHg 39%
    16:00 +30°C° 1 mm 3 mps 655 mmHg 42%
    17:00 +29°C° 1 mm 3 mps 655 mmHg 46%
    18:00 +28°C° 1 mm 4 mps 655 mmHg 49%
    19:00 +26°C° 0.4 mm 3 mps 655 mmHg 55%
    20:00 +24°C° 0.4 mm 3 mps 655 mmHg 60%
    21:00 +22°C° 0.4 mm 3 mps 655 mmHg 66%
    22:00 +21°C° 0.5 mm 3 mps 655 mmHg 68%
    23:00 +21°C° 0.5 mm 3 mps 655 mmHg 70%

    20 August, Monday

    Time Temperature Precipitation Wind Pressure Humidity
    00:00 +20°C° 0.5 mm 3 mps 655 mmHg 72%
    01:00 +20°C° 0.3 mm 3 mps 655 mmHg 73%
    02:00 +19°C° 0.3 mm 3 mps 655 mmHg 74%
    03:00 +19°C° 0.3 mm 3 mps 655 mmHg 75%
    04:00 +18°C° 0.1 mm 3 mps 655 mmHg 75%
    05:00 +18°C° 0.1 mm 3 mps 655 mmHg 75%
    06:00 +18°C° 0.1 mm 3 mps 655 mmHg 75%
    07:00 +20°C° 0.1 mm 2 mps 655 mmHg 68%
    08:00 +23°C° 0.1 mm 2 mps 656 mmHg 60%
    09:00 +25°C° 0.1 mm 2 mps 656 mmHg 53%
    10:00 +26°C° 0.2 mm 2 mps 656 mmHg 50%
    11:00 +27°C° 0.2 mm 2 mps 656 mmHg 46%
    12:00 +28°C° 0.2 mm 3 mps 656 mmHg 42%
    13:00 +29°C° 0.3 mm 3 mps 656 mmHg 42%
    14:00 +29°C° 0.3 mm 3 mps 656 mmHg 42%
    15:00 +29°C° 0.3 mm 3 mps 656 mmHg 41%
    16:00 +28°C° 0.5 mm 3 mps 656 mmHg 44%
    17:00 +28°C° 0.5 mm 3 mps 656 mmHg 47%
    18:00 +27°C° 0.5 mm 4 mps 656 mmHg 50%
    19:00 +25°C° 0.4 mm 3 mps 656 mmHg 56%
    20:00 +24°C° 0.4 mm 3 mps 656 mmHg 62%
    21:00 +21°C° 0.4 mm 3 mps 656 mmHg 67%
    22:00 +20°C° 0.3 mm 3 mps 656 mmHg 70%
    23:00 +20°C° 0.3 mm 3 mps 657 mmHg 72%
    Show more